CW2931 Weather Reports


Display with metric or nautical units.
time (UTC)temp
F
wind
direction
speed
MPH
gust
MPH
rain 1hr
in
rain 24hr
in
rain mn
in
humidity
%
barometer
mb
20260903151604 81 208 0.0 0.0 0.00 0.00 0.00 85 1012.8
20260903151103 81 243 0.0 0.0 0.00 0.00 0.00 85 1012.6
20260903150604 81 242 0.0 0.0 0.00 0.00 0.00 85 1012.8
20260903150104 81 220 0.0 0.0 0.00 0.00 0.00 84 1012.4
20260903145604 81 220 0.0 0.0 0.00 0.00 0.00 84 1012.4
20260903144604 81 218 0.0 0.0 0.00 0.00 0.00 84 1012.6
20260903144104 81 196 0.0 0.0 0.00 0.00 0.00 84 1012.7
20260903143603 81 196 0.0 0.0 0.00 0.00 0.00 84 1012.6
20260903142604 81 202 0.0 0.0 0.00 0.00 0.00 85 1012.5
20260903141604 81 202 1.0 2.0 0.00 0.00 0.00 85 1012.4
20260903141104 81 198 1.0 3.0 0.00 0.00 0.00 85 1012.2
20260903140603 81 194 0.0 1.0 0.00 0.00 0.00 86 1012.2
20260903135604 81 204 0.0 3.0 0.00 0.00 0.00 87 1012.3
20260903135104 81 199 0.0 1.0 0.00 0.00 0.00 87 1012.5
20260903134104 80 248 1.0 2.0 0.00 0.00 0.00 88 1012.5
20260903133605 80 178 0.0 0.0 0.00 0.00 0.00 88 1012.3
20260903133104 79 225 0.0 0.0 0.00 0.00 0.00 88 1012.4
20260903132603 79 228 0.0 2.0 0.00 0.00 0.00 88 1012.7
20260903132103 79 233 1.0 3.0 0.00 0.00 0.00 88 1012.7
20260903131603 78 181 2.0 3.0 0.00 0.00 0.00 88 1012.7
20260903131104 78 244 1.0 3.0 0.00 0.00 0.00 88 1012.6
20260903130604 78 244 0.0 0.0 0.00 0.00 0.00 88 1012.6
20260903125604 77 198 1.0 2.0 0.00 0.00 0.00 88 1012.7
20260903125104 77 197 1.0 3.0 0.00 0.00 0.00 88 1012.8
20260903124604 77 197 2.0 3.0 0.00 0.00 0.00 88 1012.8
20260903124104 76 198 0.0 3.0 0.00 0.00 0.00 88 1012.9
20260903123604 75 153 1.0 3.0 0.00 0.00 0.00 87 1012.9
20260903122104 74 156 0.0 0.0 0.00 0.00 0.00 86 1012.9
20260903121604 74 156 0.0 0.0 0.00 0.00 0.00 86 1012.9
20260903121104 74 156 0.0 0.0 0.00 0.00 0.00 85 1012.9
20260903120604 74 156 0.0 0.0 0.00 0.00 0.00 84 1012.8
20260903120104 74 156 0.0 0.0 0.00 0.00 0.00 84 1012.8
20260903115603 74 156 0.0 0.0 0.00 0.00 0.00 84 1012.8
20260903115104 74 156 0.0 0.0 0.00 0.00 0.00 84 1012.8
20260903114604 74 156 0.0 0.0 0.00 0.00 0.00 84 1012.8
20260903114104 74 156 0.0 0.0 0.00 0.00 0.00 84 1012.8
20260903113605 74 156 0.0 0.0 0.00 0.00 0.00 84 1012.8
20260903113108 74 156 0.0 0.0 0.00 0.00 0.00 84 1012.8
20260903112604 74 156 0.0 0.0 0.00 0.00 0.00 84 1012.8
20260903112104 74 156 0.0 0.0 0.00 0.00 0.00 84 1012.8
20260903111604 74 156 0.0 0.0 0.00 0.00 0.00 83 1012.7
20260903111104 74 156 0.0 0.0 0.00 0.00 0.00 83 1012.6
20260903110604 74 156 0.0 0.0 0.00 0.00 0.00 83 1012.6
20260903110103 74 156 0.0 0.0 0.00 0.00 0.00 83 1012.4
20260903105603 74 156 0.0 0.0 0.00 0.00 0.00 83 1012.3
20260903105103 74 156 0.0 0.0 0.00 0.00 0.00 83 1012.3
20260903104603 75 156 0.0 0.0 0.00 0.00 0.00 83 1012.3
20260903104104 75 156 0.0 0.0 0.00 0.00 0.00 83 1012.3
20260903103604 75 156 0.0 0.0 0.00 0.00 0.00 83 1012.3
20260903103104 75 156 0.0 0.0 0.00 0.00 0.00 83 1012.3
20260903102604 75 156 0.0 0.0 0.00 0.00 0.00 83 1012.3
20260903102104 75 156 0.0 0.0 0.00 0.00 0.00 83 1012.3
20260903101603 75 156 0.0 0.0 0.00 0.00 0.00 83 1012.2
20260903101103 75 156 0.0 1.0 0.00 0.00 0.00 83 1012.3
20260903100605 75 156 0.0 0.0 0.00 0.00 0.00 83 1012.2
20260903100104 75 156 0.0 0.0 0.00 0.00 0.00 83 1012.2
20260903095604 75 156 0.0 0.0 0.00 0.00 0.00 83 1012.2
20260903094104 76 156 0.0 2.0 0.00 0.00 0.00 83 1012.2
20260903093604 76 156 0.0 2.0 0.00 0.00 0.00 83 1012.2
20260903093104 76 155 1.0 3.0 0.00 0.00 0.00 83 1012.2
20260903092604 76 169 0.0 2.0 0.00 0.00 0.00 83 1012.2
20260903092104 76 166 0.0 2.0 0.00 0.00 0.00 83 1012.1
20260903091603 76 166 0.0 1.0 0.00 0.00 0.00 83 1012.1
20260903091103 76 166 0.0 2.0 0.00 0.00 0.00 83 1012.0
20260903090606 76 167 1.0 2.0 0.00 0.00 0.00 83 1011.9
20260903090104 76 167 1.0 2.0 0.00 0.00 0.00 83 1011.9
20260903085104 76 167 0.0 1.0 0.00 0.00 0.00 82 1011.9
20260903084604 75 167 0.0 1.0 0.00 0.00 0.00 82 1011.9
20260903084104 75 167 0.0 2.0 0.00 0.00 0.00 83 1011.8
20260903083104 75 165 1.0 2.0 0.00 0.00 0.00 82 1011.9
20260903082604 75 165 0.0 2.0 0.00 0.00 0.00 83 1012.1
20260903082105 75 165 2.0 3.0 0.00 0.00 0.00 83 1011.9
20260903081604 75 172 1.0 5.0 0.00 0.00 0.00 83 1011.8
20260903081104 75 175 3.0 5.0 0.00 0.00 0.00 83 1011.8
20260903080604 75 197 2.0 3.0 0.00 0.00 0.00 83 1012.1
20260903080104 75 25 1.0 3.0 0.00 0.00 0.00 83 1012.2
20260903075604 75 25 0.0 1.0 0.00 0.00 0.00 83 1012.3
20260903075104 75 25 0.0 1.0 0.00 0.00 0.00 83 1012.5
20260903074604 75 25 1.0 1.0 0.00 0.00 0.00 82 1012.2
20260903073103 75 24 0.0 1.0 0.00 0.00 0.00 82 1012.0
20260903072603 75 24 0.0 1.0 0.00 0.00 0.00 82 1012.2
20260903072103 75 24 0.0 2.0 0.00 0.00 0.00 82 1012.2
20260903071604 75 24 1.0 2.0 0.00 0.00 0.00 82 1012.3
20260903071107 75 24 0.0 1.0 0.00 0.00 0.00 82 1012.3
20260903070604 75 24 1.0 1.0 0.00 0.00 0.00 81 1012.2
20260903065603 75 24 0.0 0.0 0.00 0.00 0.00 81 1012.3
20260903065103 75 24 1.0 2.0 0.00 0.00 0.00 81 1012.1
20260903064603 75 24 1.0 2.0 0.00 0.00 0.00 80 1011.8
20260903064103 75 24 0.0 1.0 0.00 0.00 0.00 79 1011.6
20260903063604 75 24 0.0 0.0 0.00 0.00 0.00 79 1011.2
20260903063104 75 24 0.0 2.0 0.00 0.00 0.00 79 1011.2
20260903062604 75 24 0.0 1.0 0.00 0.00 0.00 79 1011.3
20260903062105 75 24 0.0 1.0 0.00 0.00 0.00 79 1011.4
20260903061605 75 24 0.0 0.0 0.00 0.00 0.00 79 1011.6
20260903061104 76 24 0.0 0.0 0.00 0.00 0.00 79 1011.7
20260903060604 76 24 0.0 1.0 0.00 0.00 0.00 79 1011.7
20260903060104 76 24 0.0 1.0 0.00 0.00 0.00 78 1011.7
20260903055605 76 24 0.0 0.0 0.00 0.00 0.00 78 1011.8
20260903054605 76 24 1.0 2.0 0.00 0.00 0.00 77 1011.8
20260903054105 76 24 0.0 0.0 0.00 0.00 0.00 77 1011.8
20260903053604 76 24 0.0 0.0 0.00 0.00 0.00 77 1011.9
20260903053104 76 24 0.0 0.0 0.00 0.00 0.00 77 1011.9
20260903052605 76 24 0.0 1.0 0.00 0.00 0.00 77 1011.8
20260903052104 76 24 0.0 0.0 0.00 0.00 0.00 77 1011.7
20260903051605 76 24 0.0 0.0 0.00 0.00 0.00 77 1011.7
20260903051107 76 24 0.0 2.0 0.00 0.00 0.00 77 1011.6
20260903050604 76 23 1.0 3.0 0.00 0.00 0.00 76 1011.3
20260903050104 76 23 2.0 3.0 0.00 0.00 0.00 76 1011.5
20260903045604 77 22 1.0 2.0 0.00 0.00 0.00 76 1011.7
20260903045104 77 22 1.0 3.0 0.00 0.00 0.00 75 1011.7
20260903044604 77 20 0.0 0.0 0.00 0.00 0.00 75 1011.9
20260903044104 77 20 0.0 0.0 0.00 0.00 0.00 74 1011.9
20260903043605 77 20 0.0 1.0 0.00 0.00 0.00 74 1012.0
20260903043105 77 20 0.0 2.0 0.00 0.00 0.00 74 1012.0
20260903042605 77 20 0.0 2.0 0.00 0.00 0.00 73 1012.3
20260903042105 78 20 1.0 3.0 0.00 0.00 0.00 73 1012.4
20260903040604 78 23 1.0 9.0 0.00 0.00 0.00 70 1012.3
20260903040105 79 343 2.0 5.0 0.00 0.00 0.00 69 1012.7
20260903035605 79 331 2.0 5.0 0.00 0.00 0.00 68 1012.9
20260903035104 80 13 3.0 5.0 0.00 0.00 0.00 66 1012.8
20260903034604 80 338 3.0 9.0 0.00 0.00 0.00 65 1012.5
20260903033604 81 292 4.0 16.0 0.00 0.00 0.00 62 1012.6
20260903033104 82 324 5.0 12.0 0.00 0.00 0.00 63 1012.8
20260903032605 83 17 6.0 20.0 0.00 0.00 0.00 66 1012.6
20260903032104 85 325 1.0 3.0 0.00 0.00 0.00 76 1012.6
20260903031604 85 236 1.0 2.0 0.00 0.00 0.00 75 1011.2
20260903031105 85 230 0.0 2.0 0.00 0.00 0.00 75 1010.7
20260903030604 85 230 2.0 7.0 0.00 0.00 0.00 75 1010.5
20260903030105 85 230 2.0 3.0 0.00 0.00 0.00 75 1010.5
20260903025604 85 238 4.0 10.0 0.00 0.00 0.00 75 1010.1
20260903025105 85 209 3.0 7.0 0.00 0.00 0.00 75 1010.2
20260903024605 85 218 2.0 13.0 0.00 0.00 0.00 74 1010.0
20260903023605 85 225 3.0 7.0 0.00 0.00 0.00 74 1009.5
20260903022604 86 212 2.0 6.0 0.00 0.00 0.00 73 1010.1
20260903022105 86 226 2.0 6.0 0.00 0.00 0.00 72 1010.5
20260903021604 86 201 2.0 3.0 0.00 0.00 0.00 72 1010.6
20260903021104 86 210 3.0 5.0 0.00 0.00 0.00 72 1010.9
20260903020605 86 212 2.0 5.0 0.00 0.00 0.00 71 1010.9
20260903020105 87 227 2.0 6.0 0.00 0.00 0.00 71 1011.0
20260903015605 87 231 2.0 7.0 0.00 0.00 0.00 70 1010.9
20260903015104 87 206 1.0 3.0 0.00 0.00 0.00 70 1010.7
20260903014604 87 199 2.0 5.0 0.00 0.00 0.00 70 1010.7
20260903014104 87 226 3.0 6.0 0.00 0.00 0.00 69 1010.8
20260903012605 87 211 2.0 5.0 0.00 0.00 0.00 68 1010.7
20260903012105 88 238 2.0 6.0 0.00 0.00 0.00 68 1010.7
20260903011104 88 239 2.0 6.0 0.00 0.00 0.00 67 1010.7
20260903010604 88 230 2.0 6.0 0.00 0.00 0.00 66 1010.6
20260903010105 88 216 0.0 0.0 0.00 0.00 0.00 66 1010.6
20260903005604 88 212 0.0 0.0 0.00 0.00 0.00 66 1010.6
20260903005104 89 235 0.0 0.0 0.00 0.00 0.00 65 1010.5
20260903004604 89 233 0.0 0.0 0.00 0.00 0.00 65 1010.4
20260903004105 89 223 0.0 0.0 0.00 0.00 0.00 64 1010.2
20260903003604 89 199 0.0 0.0 0.00 0.00 0.00 64 1010.2
20260903003104 89 249 0.0 0.0 0.00 0.00 0.00 63 1010.2
20260903002604 89 229 0.0 0.0 0.00 0.00 0.00 63 1010.2
20260903002104 90 233 0.0 3.0 0.00 0.00 0.00 62 1010.2
20260903001604 90 231 2.0 5.0 0.00 0.00 0.00 61 1010.2
20260903001105 90 221 4.0 12.0 0.00 0.00 0.00 61 1010.2
20260903000604 90 249 2.0 9.0 0.00 0.00 0.00 60 1010.3
20260903000105 91 240 2.0 9.0 0.00 0.00 0.00 59 1010.4
20260902235604 91 227 3.0 10.0 0.00 0.00 0.00 59 1010.5
20260902235104 91 199 2.0 7.0 0.00 0.00 0.00 58 1010.5
20260902234604 91 245 3.0 9.0 0.00 0.00 0.00 57 1010.5
20260902233604 92 216 3.0 6.0 0.00 0.00 0.00 56 1010.5
20260902233105 92 239 3.0 7.0 0.00 0.00 0.00 56 1010.5
20260902232606 92 231 4.0 12.0 0.00 0.00 0.00 55 1010.6
20260902231604 93 239 3.0 12.0 0.00 0.00 0.00 54 1010.6
20260902230605 94 257 4.0 9.0 0.00 0.00 0.00 53 1010.5
20260902230104 94 277 3.0 9.0 0.00 0.00 0.00 53 1010.2
20260902225604 94 284 3.0 12.0 0.00 0.00 0.00 52 1010.1
20260902225105 94 244 4.0 10.0 0.00 0.00 0.00 52 1010.1
20260902224604 94 211 5.0 9.0 0.00 0.00 0.00 51 1010.1
20260902224104 95 222 3.0 7.0 0.00 0.00 0.00 51 1010.1
20260902223104 95 227 2.0 7.0 0.00 0.00 0.00 50 1010.2
20260902222604 95 228 6.0 13.0 0.00 0.00 0.00 50 1010.2
20260902222105 95 227 6.0 13.0 0.00 0.00 0.00 49 1010.1
20260902221604 95 235 3.0 7.0 0.00 0.00 0.00 49 1010.1
20260902221104 95 221 6.0 15.0 0.00 0.00 0.00 48 1010.1
20260902220105 95 241 5.0 12.0 0.00 0.00 0.00 50 1010.2
20260902215104 95 195 3.0 10.0 0.00 0.00 0.00 50 1010.2
20260902214604 95 236 6.0 14.0 0.00 0.00 0.00 49 1010.3
20260902214104 95 252 7.0 14.0 0.00 0.00 0.00 49 1010.4
20260902213104 95 245 4.0 10.0 0.00 0.00 0.00 48 1010.4
20260902212604 95 239 6.0 14.0 0.00 0.00 0.00 48 1010.4
20260902212104 95 276 5.0 12.0 0.00 0.00 0.00 49 1010.4
20260902211604 96 224 8.0 18.0 0.00 0.00 0.00 48 1010.4
20260902211104 96 269 6.0 15.0 0.00 0.00 0.00 47 1010.4
20260902210604 96 196 5.0 14.0 0.00 0.00 0.00 48 1010.3
20260902210104 96 279 3.0 13.0 0.00 0.00 0.00 47 1010.5
20260902205604 96 209 6.0 13.0 0.00 0.00 0.00 47 1010.6
20260902205105 96 250 7.0 14.0 0.00 0.00 0.00 48 1010.6
20260902204604 96 229 6.0 18.0 0.00 0.00 0.00 48 1010.7
20260902204105 96 212 5.0 13.0 0.00 0.00 0.00 49 1010.7
20260902203604 96 247 6.0 13.0 0.00 0.00 0.00 48 1010.7
20260902203104 96 274 3.0 12.0 0.00 0.00 0.00 50 1010.7
20260902202604 96 182 5.0 12.0 0.00 0.00 0.00 50 1010.7
20260902202104 97 226 5.0 12.0 0.00 0.00 0.00 49 1010.9
20260902201604 97 238 5.0 10.0 0.00 0.00 0.00 48 1011.0
20260902200604 97 233 5.0 12.0 0.00 0.00 0.00 48 1011.2
20260902200104 97 232 4.0 13.0 0.00 0.00 0.00 49 1011.2
20260902195604 97 270 4.0 12.0 0.00 0.00 0.00 48 1011.2
20260902195104 97 260 5.0 13.0 0.00 0.00 0.00 49 1011.2
20260902194604 97 242 6.0 16.0 0.00 0.00 0.00 48 1011.3
20260902194104 97 285 7.0 13.0 0.00 0.00 0.00 48 1011.3
20260902193604 97 263 4.0 15.0 0.00 0.00 0.00 48 1011.4
20260902193104 97 306 5.0 13.0 0.00 0.00 0.00 47 1011.5
20260902192605 97 210 7.0 15.0 0.00 0.00 0.00 48 1011.6
20260902192104 97 226 3.0 10.0 0.00 0.00 0.00 48 1011.5
20260902191604 97 264 5.0 12.0 0.00 0.00 0.00 49 1011.4
20260902190604 97 226 4.0 10.0 0.00 0.00 0.00 49 1011.7
20260902190104 97 228 5.0 12.0 0.00 0.00 0.00 50 1011.7
20260902185104 96 210 4.0 10.0 0.00 0.00 0.00 50 1011.7
20260902184604 97 229 7.0 13.0 0.00 0.00 0.00 51 1011.7
20260902184105 96 197 4.0 14.0 0.00 0.00 0.00 52 1011.7
20260902183604 96 273 5.0 13.0 0.00 0.00 0.00 51 1011.8
20260902183104 96 243 5.0 13.0 0.00 0.00 0.00 52 1011.8
20260902182104 96 276 5.0 14.0 0.00 0.00 0.00 52 1012.0
20260902181605 96 275 5.0 12.0 0.00 0.00 0.00 50 1012.0
20260902181104 96 251 5.0 13.0 0.00 0.00 0.00 51 1012.1
20260902180604 96 271 4.0 8.0 0.00 0.00 0.00 51 1012.2
20260902180104 96 267 5.0 14.0 0.00 0.00 0.00 51 1012.3
20260902175604 96 237 6.0 10.0 0.00 0.00 0.00 52 1012.3
20260902173604 95 244 3.0 12.0 0.00 0.00 0.00 54 1012.4
20260902172604 95 209 3.0 8.0 0.00 0.00 0.00 55 1012.5
20260902172104 95 180 2.0 7.0 0.00 0.00 0.00 55 1012.6
20260902171605 95 232 6.0 14.0 0.00 0.00 0.00 54 1012.8
20260902171104 95 231 4.0 10.0 0.00 0.00 0.00 54 1012.8
20260902170604 95 237 5.0 9.0 0.00 0.00 0.00 54 1012.8
20260902170104 94 185 3.0 6.0 0.00 0.00 0.00 56 1012.8
20260902165604 94 305 2.0 6.0 0.00 0.00 0.00 57 1012.8
20260902165104 93 269 4.0 9.0 0.00 0.00 0.00 57 1012.8
20260902164604 93 229 5.0 9.0 0.00 0.00 0.00 57 1012.9
20260902164104 93 277 5.0 10.0 0.00 0.00 0.00 57 1013.0
20260902163604 93 261 3.0 6.0 0.00 0.00 0.00 59 1013.1
20260902163104 93 235 5.0 9.0 0.00 0.00 0.00 59 1013.1
20260902162604 92 219 4.0 9.0 0.00 0.00 0.00 59 1013.1
20260902162104 92 233 4.0 7.0 0.00 0.00 0.00 61 1013.2
20260902161604 92 257 2.0 5.0 0.00 0.00 0.00 61 1013.3
20260902161104 91 283 3.0 7.0 0.00 0.00 0.00 61 1013.4
20260902160603 91 251 2.0 6.0 0.00 0.00 0.00 63 1013.4
20260902160105 90 244 2.0 6.0 0.00 0.00 0.00 63 1013.4
20260902155604 90 255 3.0 8.0 0.00 0.00 0.00 63 1013.4
20260902155104 90 271 2.0 8.0 0.00 0.00 0.00 64 1013.4
20260902154604 90 265 3.0 9.0 0.00 0.00 0.00 63 1013.4
20260902154104 90 263 2.0 6.0 0.00 0.00 0.00 64 1013.4
20260902153604 89 253 1.0 10.0 0.00 0.00 0.00 65 1013.4
20260902153105 89 288 1.0 3.0 0.00 0.00 0.00 67 1013.4
20260902152604 89 263 2.0 7.0 0.00 0.00 0.00 68 1013.4